P/2019 W1 ( PanSTARRS )

Japanese version
Home page
Updated on December 24, 2019

---------------------------------------------------------------------

* Profile

Discovery Date November 29, 2019
Magnitude 20.5 mag
Discoverer Pan-STARRS 2 telescope (Haleakala)

* Orbital Elements

Epoch 2019 Apr. 27.0 TT = JDT 2458600.5                                         
T 2019 May 8.09375 TT                                   Rudenko                 
q   3.3399181            (2000.0)            P               Q                  
n   0.10155873     Peri.   18.76415     +0.60048110     -0.76560345             
a   4.5497886      Node    35.42844     +0.67323525     +0.32828974             
e   0.2659180      Incl.   23.46358     +0.43148204     +0.55324245             
P   9.70                                                                        
From 72 observations 2018 Aug. 8-2019 Dec. 20, mean residual 0".6.              

* Magnitudes Graph

        m1 = 12.5 + 5 log d + 10.0 log r

---------------------------------------------------------------------

The orbital elements are published on M.P.E.C. 2019-Y37.
The magnitudes graphs are made with Comet for Windows.

---------------------------------------------------------------------

Copyright(C) Seiichi Yoshida (comet@aerith.net). All rights reserved.